This is the latest recevied weather packets stored in our database for station/object AC1IX. If no packets are shown the sender has not sent any weather packets the latest 10 day(s).
| Time | Temp. | Humidity | Pressure | Rain* | Wind** | Luminosity | Snow |
|---|---|---|---|---|---|---|---|
| 1777974864 | 15° C | 64% | 1008.4 hPa | 0 mm | - | 4 W/m² | - |
| 1777974560 | 15° C | 64% | 1008.6 hPa | 0 mm | - | 2 W/m² | - |
| 1777974257 | 15° C | 65% | 1008.5 hPa | 0 mm | - | 0 W/m² | - |
| 1777973953 | 15° C | 63% | 1008.5 hPa | 0 mm | - | 0 W/m² | - |
| 1777973650 | 15° C | 63% | 1008.2 hPa | 0 mm | - | 0 W/m² | - |
| 1777973348 | 15° C | 62% | 1008.4 hPa | 0 mm | - | 0 W/m² | - |
| 1777973046 | 15.56° C | 63% | 1008.6 hPa | 0 mm | - | 0 W/m² | - |
| 1777972743 | 15° C | 63% | 1008.5 hPa | 0 mm | - | 0 W/m² | - |
| 1777972440 | 15.56° C | 60% | 1008.5 hPa | 0 mm | - | 0 W/m² | - |
| 1777972138 | 15.56° C | 60% | 1008.4 hPa | 0 mm | - | 0 W/m² | - |
| 1777971836 | 15.56° C | 60% | 1008.6 hPa | 0 mm | - | 0 W/m² | - |
| 1777971533 | 15° C | 61% | 1008.7 hPa | 0 mm | - | 0 W/m² | - |
| 1777971231 | 15° C | 62% | 1008.6 hPa | 0 mm | - | 0 W/m² | - |
| 1777970929 | 15° C | 63% | 1008.9 hPa | 0 mm | - | 0 W/m² | - |
| 1777970627 | 15.56° C | 61% | 1008.8 hPa | 0 mm | - | 0 W/m² | - |
| 1777970324 | 15.56° C | 60% | 1008.8 hPa | 0 mm | - | 0 W/m² | - |
| 1777970021 | 15.56° C | 59% | 1008.8 hPa | 0 mm | - | 0 W/m² | - |
| 1777969717 | 15° C | 60% | 1009 hPa | 0 mm | - | 0 W/m² | - |
| 1777969414 | 15° C | 59% | 1009 hPa | 0 mm | - | 0 W/m² | - |
| 1777969111 | 15° C | 60% | 1008.9 hPa | 0 mm | - | 0 W/m² | - |
| 1777968807 | 15° C | 59% | 1009 hPa | 0 mm | - | 0 W/m² | - |
| 1777968504 | 15° C | 61% | 1008.9 hPa | 0 mm | - | 0 W/m² | - |
| 1777968200 | 15° C | 61% | 1009.1 hPa | 0 mm | - | 0 W/m² | - |
| 1777967895 | 15° C | 62% | 1008.8 hPa | 0 mm | - | 0 W/m² | - |
| 1777967593 | 15° C | 59% | 1008.8 hPa | 0 mm | - | 0 W/m² | - |
* Rain latest hour (hover to see other rain measurements)
** Current wind speed in m/s (hover to see current wind gust speed)